EW6756 Weather Reports


Display with metric or nautical units.
time (UTC)temp
F
wind
direction
speed
MPH
gust
MPH
rain 1hr
in
rain 24hr
in
rain mn
in
humidity
%
barometer
mb
20260902104503 68 234 3.0 10.0 0.00 0.08 0.00 80 1017.4
20260902104004 68 195 3.0 12.0 0.00 0.08 0.00 80 1017.5
20260902103718 68 195 3.0 12.0 0.00 0.08 0.00 80 1017.4
20260902103004 68 223 2.0 11.0 0.00 0.08 0.00 81 1017.5
20260902102720 68 214 3.0 11.0 0.00 0.08 0.00 82 1017.4
20260902102221 67 189 2.0 11.0 0.00 0.08 0.00 82 1017.5
20260902101503 67 174 2.0 11.0 0.00 0.08 0.00 82 1017.5
20260902101005 67 195 3.0 16.0 0.00 0.08 0.00 82 1017.4
20260902100503 67 200 3.0 16.0 0.00 0.08 0.00 83 1017.5
20260902100217 67 201 3.0 16.0 0.00 0.08 0.00 83 1017.4
20260902095505 67 198 2.0 10.0 0.00 0.08 0.00 83 1017.2
20260902095005 66 209 2.0 10.0 0.00 0.08 0.00 84 1017.5
20260902094504 66 228 2.0 10.0 0.00 0.08 0.00 84 1017.5
20260902094217 66 253 2.0 10.0 0.00 0.08 0.00 84 1017.5
20260902093503 66 199 2.0 8.0 0.00 0.08 0.00 85 1017.5
20260902093004 65 190 2.0 8.0 0.00 0.08 0.00 84 1017.3
20260902092503 65 190 1.0 10.0 0.00 0.08 0.00 84 1017.5
20260902092003 65 183 2.0 14.0 0.00 0.08 0.00 84 1017.5
20260902091717 65 197 3.0 14.0 0.00 0.08 0.00 84 1017.5
20260902091005 65 213 3.0 10.0 0.00 0.08 0.00 86 1017.7
20260902090504 64 201 1.0 7.0 0.00 0.08 0.00 86 1017.7
20260902090004 64 189 1.0 7.0 0.00 0.08 0.00 86 1017.5
20260902085503 64 193 1.0 15.0 0.00 0.08 0.00 86 1017.6
20260902085218 64 212 2.0 15.0 0.00 0.08 0.00 86 1017.6
20260902084503 64 222 4.0 15.0 0.00 0.08 0.00 87 1017.6
20260902084005 63 216 3.0 8.0 0.00 0.08 0.00 88 1017.5
20260902083717 63 207 3.0 8.0 0.00 0.08 0.00 88 1017.5
20260902083003 63 197 1.0 5.0 0.00 0.08 0.00 88 1017.5
20260902082503 63 221 2.0 7.0 0.00 0.08 0.00 89 1017.5
20260902082004 62 204 1.0 7.0 0.00 0.08 0.00 89 1017.5
20260902081505 62 181 2.0 11.0 0.00 0.08 0.00 90 1017.3
20260902081004 62 187 2.0 11.0 0.00 0.08 0.00 90 1017.3
20260902080503 62 201 2.0 11.0 0.00 0.08 0.00 91 1017.3
20260902080004 61 204 2.0 8.0 0.00 0.08 0.00 91 1017.4
20260902075505 61 194 3.0 10.0 0.00 0.08 0.00 91 1017.4
20260902075004 61 201 3.0 10.0 0.00 0.08 0.00 92 1017.3
20260902074503 60 226 1.0 10.0 0.00 0.08 0.00 93 1017.4
20260902074003 60 201 1.0 5.0 0.00 0.08 0.00 93 1017.4
20260902073503 60 203 1.0 5.0 0.00 0.08 0.00 94 1017.4
20260902073004 60 199 1.0 5.0 0.00 0.08 0.00 94 1017.5
20260902072503 59 189 1.0 5.0 0.00 0.08 0.00 94 1017.4
20260902072005 59 188 1.0 4.0 0.00 0.08 0.00 94 1017.4
20260902071505 59 174 1.0 4.0 0.00 0.08 0.00 95 1017.3
20260902071003 59 188 1.0 4.0 0.00 0.08 0.00 95 1017.4
20260902070504 59 215 0.0 4.0 0.00 0.08 0.00 95 1017.4
20260902070004 58 219 0.0 4.0 0.00 0.08 0.00 95 1017.5
20260902065503 58 225 0.0 4.0 0.00 0.08 0.00 95 1017.3
20260902065004 58 225 1.0 5.0 0.00 0.08 0.00 95 1017.5
20260902064504 58 219 1.0 5.0 0.00 0.08 0.00 95 1017.4
20260902064005 58 215 1.0 5.0 0.00 0.08 0.00 96 1017.5
20260902063504 58 214 0.0 4.0 0.00 0.08 0.00 96 1017.6
20260901130006 67 215 1.0 10.0 0.03 0.46 0.17 87 1015.7
20260901125503 67 200 3.0 10.0 0.03 0.46 0.17 86 1015.8
20260901125005 67 254 4.0 11.0 0.02 0.46 0.17 85 1015.9
20260901124504 68 243 3.0 11.0 0.02 0.45 0.16 85 1015.7
20260901124004 69 228 3.0 11.0 0.00 0.44 0.14 85 1015.5
20260901123505 69 260 2.0 10.0 0.00 0.44 0.14 86 1015.3
20260901123003 69 256 3.0 10.0 0.00 0.44 0.14 87 1015.4
20260901122503 68 214 3.0 10.0 0.00 0.44 0.14 87 1015.3
20260901122004 68 234 3.0 14.0 0.01 0.44 0.14 88 1015.4
20260901121505 68 268 3.0 14.0 0.05 0.44 0.14 89 1015.3
20260901121003 67 258 3.0 14.0 0.05 0.44 0.14 89 1015.5
20260901120503 67 252 2.0 8.0 0.05 0.44 0.14 89 1015.4
20260901120220 67 207 2.0 10.0 0.05 0.44 0.14 89 1015.3
20260901115503 67 212 1.0 10.0 0.05 0.44 0.14 88 1015.5
20260901115004 67 243 1.0 8.0 0.05 0.44 0.14 88 1015.4
20260901114719 67 240 1.0 8.0 0.05 0.44 0.14 88 1015.3
20260901114005 67 211 2.0 12.0 0.05 0.44 0.14 88 1015.1
20260901113503 68 191 2.0 12.0 0.05 0.44 0.14 87 1015.1
20260901113005 68 271 2.0 12.0 0.05 0.44 0.14 87 1014.9
20260901112503 68 242 1.0 8.0 0.05 0.44 0.14 86 1015.1
20260901112004 69 221 2.0 11.0 0.04 0.43 0.13 84 1015.2
20260901111506 69 220 3.0 12.0 0.00 0.39 0.09 84 1015.0
20260901111217 69 228 2.0 12.0 0.00 0.39 0.09 84 1015.1
20260901110504 68 188 2.0 11.0 0.00 0.39 0.09 84 1015.1
20260901110003 68 208 2.0 12.0 0.00 0.39 0.09 84 1015.1
20260901105506 69 181 2.0 12.0 0.00 0.39 0.09 84 1015.1
20260901105004 69 165 3.0 12.0 0.00 0.39 0.09 84 1015.0